Weather History for Louisville, KY

Change the Weather History Date:

Monday, September 2, 2013

  Actual Average Record
Temperature  
Mean Temperature 80 °F 76 °F  
Max Temperature 88 °F 86 °F 103 °F (1953)
Min Temperature 72 °F 66 °F 46 °F (1949)
Degree Days  
Heating Degree Days 0 0  
Month to date heating degree days 0 0  
Since 1 July heating degree days 0 0  
Cooling Degree Days 15 11  
Month to date cooling degree days 29 22  
Year to date cooling degree days 1369 1379  
Growing Degree Days 30 (Base 50)    
Moisture  
Dew Point 70 °F    
Average Humidity 76    
Maximum Humidity 93    
Minimum Humidity 59    
Precipitation  
Precipitation 0.42 in 0.09 in 2.37 in (1981)
Month to date precipitation 0.71 0.18  
Year to date precipitation 32.52 31.40  
Snow  
Snow 0.00 in 0.00 in - ()
Month to date snowfall 0.0 0.0  
Since 1 July snowfall 0.0 0.0  
Since 1 September snowfall 0.0 0.0  
Snow Depth 0.00 in    
Sea Level Pressure  
Sea Level Pressure 29.85 in    
Wind  
Wind Speed 6 mph (West)    
Max Wind Speed 29 mph    
Max Gust Speed 37 mph    
Visibility 7 miles    
Events Rain , Thunderstorm    
T = Trace of Precipitation, MM = Missing Value Source: NWS Daily Summary

Daily Weather History Graph

Daily Weather History Graph

Search for Another Location

Airport:

Trip Planner

Search our weather history database for the weather conditions in past years. The results will help you decide how hot, cold, wet, or windy it might be!

Date:

Astronomy

Sep. 02, 2013 Rise Set
Actual Time 7:13 AM EDT 8:10 PM EDT
Civil Twilight 6:46 AM EDT 8:37 PM EDT
Nautical Twilight 6:14 AM EDT 9:09 PM EDT
Astronomical Twilight 5:41 AM EDT 9:42 PM EDT
Moon 4:31 AM EDT (9/2) 6:22 PM EDT (9/2)
Length of Visible Light 13h 50m
Length of Day
12h 57m
Waning Crescent, 8% of the Moon is Illuminated
Sep 2
Waning Crescent
Sep 5
New
Sep 12
First Quarter
Sep 19
Full
Sep 26
Last Quarter

Hourly Weather History & Observations

Time (EDT) Temp. Heat Index Dew Point Humidity Pressure Visibility Wind Dir Wind Speed Gust Speed Precip Events Conditions
12:56 AM 78.1 °F - 72.0 °F 81% 29.82 in 9.0 mi WSW 8.1 mph - N/A   Mostly Cloudy
1:56 AM 75.9 °F - 69.1 °F 79% 29.83 in 10.0 mi WSW 5.8 mph - N/A   Partly Cloudy
2:56 AM 75.9 °F - 66.9 °F 74% 29.83 in 10.0 mi WSW 4.6 mph - N/A   Partly Cloudy
3:56 AM 75.0 °F - 69.1 °F 82% 29.82 in 10.0 mi Calm Calm - N/A   Partly Cloudy
4:56 AM 73.0 °F - 69.1 °F 87% 29.82 in 9.0 mi Calm Calm - N/A   Partly Cloudy
5:56 AM 73.0 °F - 70.0 °F 90% 29.81 in 8.0 mi SSW 5.8 mph - N/A   Partly Cloudy
6:56 AM 72.0 °F - 70.0 °F 93% 29.83 in 6.0 mi Calm Calm - N/A   Partly Cloudy
7:56 AM 73.0 °F - 70.0 °F 90% 29.86 in 6.0 mi SW 3.5 mph - N/A   Partly Cloudy
8:31 AM 73.4 °F - 71.6 °F 94% 29.88 in 5.0 mi Calm Calm - N/A   Mostly Cloudy
8:56 AM 75.0 °F - 71.1 °F 87% 29.87 in 5.0 mi SW 3.5 mph - N/A   Mostly Cloudy
9:56 AM 75.9 °F - 71.1 °F 85% 29.88 in 5.0 mi West 6.9 mph - N/A   Haze
10:56 AM 80.1 °F 83.8 °F 72.0 °F 76% 29.88 in 5.0 mi SW 4.6 mph - N/A   Haze
11:56 AM 82.9 °F 88.0 °F 72.0 °F 69% 29.88 in 7.0 mi SSW 8.1 mph - N/A   Scattered Clouds
12:56 PM 84.9 °F 90.1 °F 71.1 °F 63% 29.87 in 7.0 mi West 5.8 mph - N/A   Scattered Clouds
1:56 PM 88.0 °F 94.7 °F 72.0 °F 59% 29.85 in 8.0 mi SW 8.1 mph - N/A   Mostly Cloudy
2:26 PM 86.0 °F 90.4 °F 69.8 °F 58% 29.85 in 9.0 mi WSW 11.5 mph - N/A Thunderstorm Thunderstorm
2:38 PM 78.8 °F - 68.0 °F 69% 29.88 in 2.0 mi NW 28.8 mph 36.8 mph 0.00 in Rain , Thunderstorm Thunderstorms and Rain
2:42 PM 73.4 °F - 69.8 °F 88% 29.88 in 0.8 mi NNW 21.9 mph 36.8 mph 0.00 in Rain , Thunderstorm Heavy Thunderstorms and Rain
2:47 PM 71.6 °F - 69.8 °F 94% 29.87 in 1.2 mi North 20.7 mph 32.2 mph 0.14 in Rain , Thunderstorm Heavy Thunderstorms and Rain
2:51 PM 71.6 °F - 69.8 °F 94% 29.87 in 2.0 mi North 16.1 mph - 0.18 in Rain , Thunderstorm Heavy Thunderstorms and Rain
2:56 PM 72.0 °F - 70.0 °F 93% 29.86 in 2.0 mi Variable 3.5 mph - 0.23 in Rain , Thunderstorm Heavy Thunderstorms and Rain
3:03 PM 75.2 °F - 68.0 °F 78% 29.86 in 4.0 mi ENE 5.8 mph - 0.19 in Rain , Thunderstorm Light Thunderstorms and Rain
3:19 PM 75.2 °F - 69.8 °F 83% 29.86 in 10.0 mi ESE 4.6 mph - 0.19 in   Mostly Cloudy
3:56 PM 75.0 °F - 71.1 °F 87% 29.84 in 8.0 mi SSW 10.4 mph - 0.19 in Rain Light Rain
4:56 PM 80.1 °F 83.2 °F 70.0 °F 71% 29.83 in 10.0 mi SW 11.5 mph - 0.00 in   Scattered Clouds
5:56 PM 84.0 °F 90.2 °F 73.0 °F 69% 29.81 in 8.0 mi West 10.4 mph - N/A   Scattered Clouds
6:56 PM 82.0 °F 87.4 °F 73.0 °F 74% 29.81 in 8.0 mi WSW 9.2 mph - N/A   Scattered Clouds
7:56 PM 81.0 °F 85.2 °F 72.0 °F 74% 29.83 in 8.0 mi West 6.9 mph - N/A   Scattered Clouds
8:56 PM 79.0 °F - 71.1 °F 77% 29.85 in 9.0 mi WNW 5.8 mph - N/A   Scattered Clouds
9:56 PM 77.0 °F - 66.9 °F 71% 29.85 in 10.0 mi NNW 4.6 mph - N/A   Partly Cloudy
10:56 PM 77.0 °F - 66.0 °F 69% 29.86 in 10.0 mi NW 3.5 mph - N/A   Partly Cloudy
11:56 PM 75.9 °F - 64.0 °F 67% 29.87 in 10.0 mi North 10.4 mph - N/A   Clear